User: anonymous   Login
Location: Caltech
(34.1382°N, 118.1253°W)
Time: 02:27:04
(UTC-07:00)
Language:

PAYLOAD A - Orbit

View from above orbital plane
View from above orbital plane
View from above satellite
View from above satellite

Ground track
Ground track

The orbit data is extracted from the following two-line orbital elements,

1 27840U 03031A   15144.17744193  .00000009  00000-0  16389-4 0  9999
2 27840 098.2085 163.6710 0097291 234.6945 185.6625 14.38804889624749
Epoch (UTC): 24 May 2015 04:15:30
Eccentricity: 0.0097291
inclination: 98.2085°
perigee height: 693 km
apogee height: 832 km
right ascension of ascending node: 163.6710°
argument of perigee: 234.6945°
revolutions per day: 14.38804889
mean anomaly at epoch: 185.6625°
orbit number at epoch: 62474

The dashed part of the orbit path shows where the satellite is in the earth's shadow,  

DLR